Date,TemperatureHighF,TemperatureAvgF,TemperatureLowF,DewpointHighF,DewpointAvgF,DewpointLowF,HumidityHigh,HumidityAvg,HumidityLow,PressureMaxIn,PressureMinIn,WindSpeedMaxMPH,WindSpeedAvgMPH,GustSpeedMaxMPH,PrecipitationSumIn
2013-1-1,26.8,23.1,20.1,13.9,9.6,6.9,64,56,46,29.41,29.29,12,3,12,0.00
2013-1-2,26.8,24.1,19.0,19.3,14.1,6.8,73,65,57,29.38,29.32,12,3,12,0.00
2013-1-3,29.1,25.3,19.2,22.8,16.7,7.6,79,70,58,29.41,29.26,14,4,14,0.00
2013-1-4,33.6,29.4,25.5,24.0,20.6,17.4,78,69,61,29.41,29.26,20,5,20,0.00
2013-1-5,36.0,29.7,22.3,32.0,23.4,18.5,95,78,53,29.44,29.20,11,2,11,0.00
2013-1-6,34.2,33.1,31.6,33.5,28.6,19.5,98,84,60,29.50,29.09,15,3,15,0.08
2013-1-7,36.9,31.6,27.0,22.6,18.6,13.6,76,59,40,29.53,29.32,18,4,18,0.00
2013-1-8,37.4,32.3,27.7,25.7,22.2,19.0,76,66,55,29.41,29.32,11,3,11,0.00
2013-1-9,43.9,37.8,31.6,31.6,25.4,20.8,77,61,43,29.65,29.23,24,5,24,0.00
2013-1-10,43.7,34.0,25.9,32.9,24.2,20.6,89,69,44,29.76,29.29,14,2,14,0.17
2013-1-11,51.1,44.5,35.2,50.5,43.9,32.2,98,97,88,29.29,28.97,8,3,8,0.62
2013-1-12,56.1,47.7,36.9,47.7,39.6,26.4,98,75,48,29.23,29.00,15,3,15,0.04
2013-1-13,36.9,31.7,24.4,33.5,28.1,13.9,97,87,65,29.35,29.09,13,4,13,0.25
2013-1-14,26.2,22.5,19.8,14.7,12.3,10.4,74,65,54,29.68,29.35,18,4,18,0.00
2013-1-15,30.7,24.3,19.0,17.8,14.1,12.6,82,66,48,29.65,29.38,9,1,9,0.00
2013-1-16,35.1,28.3,20.1,27.6,18.6,12.9,81,67,45,29.38,29.03,19,4,19,0.00
2013-1-17,34.0,27.0,20.3,25.9,12.2,2.9,72,53,44,29.59,29.23,20,5,20,0.00
2013-1-18,38.5,28.0,19.0,23.3,12.1,2.3,66,51,44,29.65,29.14,22,4,22,0.00
2013-1-19,44.4,40.5,37.4,32.6,27.0,16.9,71,59,40,29.14,28.88,31,4,31,0.00
2013-1-20,39.2,18.1,14.5,16.9,5.2,1.9,70,57,40,29.44,28.88,32,7,32,0.00
2013-1-21,16.3,10.5,1.8,7.6,3.6,-4.5,75,73,61,29.38,29.26,18,5,18,0.00
2013-1-22,12.0,4.7,-0.2,5.5,-1.4,-6.2,75,75,75,29.50,29.38,17,3,17,0.00
2013-1-23,20.3,12.4,4.8,11.8,5.2,-1.4,78,72,60,29.50,29.29,13,2,13,0.00
2013-1-24,18.1,11.3,3.2,6.2,-0.2,-4.1,71,60,45,29.82,29.44,9,1,9,0.00
2013-1-25,22.6,18.1,12.7,16.4,7.5,-1.5,80,63,52,29.68,29.23,12,3,12,0.00
2013-1-26,29.7,24.3,20.3,18.1,14.9,11.5,80,68,48,29.65,29.29,13,2,13,0.00
2013-1-27,31.1,26.4,21.4,28.2,17.8,12.4,90,71,51,29.65,29.26,12,3,12,0.00
2013-1-28,42.1,35.9,30.6,41.6,34.0,28.0,98,93,83,29.29,29.09,13,3,13,0.00
2013-1-29,55.6,46.0,33.4,55.0,45.2,30.7,98,97,89,29.23,28.67,17,4,17,0.00
2013-1-30,50.5,40.0,24.3,50.0,38.8,18.0,98,95,77,28.70,28.41,26,4,26,0.00
2013-1-31,24.4,19.4,14.9,20.9,13.4,8.6,86,77,67,29.17,28.67,22,6,22,0.00
2013-2-1,19.4,14.4,10.4,10.7,6.2,1.3,81,70,56,29.47,29.17,16,4,16,0.00
2013-2-2,20.5,14.8,7.5,12.7,5.7,-2.8,85,67,55,29.38,29.23,8,2,8,0.00
2013-2-3,21.6,15.3,7.5,13.9,6.6,-2.8,78,68,62,29.26,29.12,22,3,22,0.00
2013-2-4,25.5,19.1,12.2,14.8,11.3,4.9,82,72,56,29.26,29.12,8,2,8,0.00
2013-2-9,29.5,24.9,20.7,15.2,14.1,12.8,72,63,54,29.50,29.44,8,2,8,0.00
2013-2-10,40.5,28.9,17.1,39.9,23.8,11.5,98,81,64,29.44,28.82,17,4,17,0.00
2013-2-11,41.9,34.8,29.7,41.4,29.7,20.2,98,82,66,29.14,28.79,17,5,17,0.00
2013-2-12,30.9,28.5,26.6,22.9,20.0,17.3,75,70,65,29.29,29.14,15,4,15,0.00
2013-2-13,39.4,31.0,23.2,25.5,22.5,18.1,85,71,52,29.20,28.97,8,2,8,0.05
2013-2-14,40.3,33.0,27.5,33.6,29.2,20.6,97,86,66,29.17,28.88,18,4,18,0.00
2013-2-15,29.3,24.7,21.2,21.4,12.9,8.6,77,61,45,29.38,29.12,11,4,11,0.00
2013-2-16,24.4,19.0,12.6,14.8,9.6,5.8,79,67,47,29.38,29.26,13,3,13,0.00
2013-2-17,27.0,16.5,7.0,8.0,4.6,0.7,75,60,43,29.47,29.35,7,2,7,0.00
2013-2-18,44.2,33.7,19.4,41.5,20.8,5.9,97,60,43,29.38,28.70,18,6,18,0.04
2013-2-19,41.9,25.5,16.2,41.2,20.9,9.3,98,82,66,29.23,28.64,26,6,26,0.08
2013-2-20,23.9,19.4,15.1,13.9,9.0,5.1,74,64,51,29.53,29.20,23,6,23,0.00
2013-2-21,29.5,23.4,20.1,14.9,12.6,9.3,74,63,52,29.62,29.41,15,4,15,0.00
2013-2-22,33.1,26.5,20.1,31.8,21.6,11.1,96,82,67,29.41,29.09,18,4,18,0.00
2013-2-23,33.1,29.1,25.2,28.0,23.8,0.0,100,81,58,29.17,29.09,13,3,13,0.04
2013-2-24,39.6,30.6,22.8,27.0,21.7,17.6,88,70,48,29.41,29.14,11,2,11,0.04
2013-2-25,41.5,28.3,16.0,27.0,18.2,11.5,88,68,43,29.47,29.32,8,1,8,0.05
2013-2-26,35.1,30.8,27.0,31.9,23.5,17.8,98,75,55,29.35,28.79,24,5,24,0.00
2013-2-27,37.4,33.8,32.4,36.1,32.9,31.9,98,96,90,28.88,28.76,7,1,7,0.00
2013-2-28,38.7,33.8,30.2,32.4,28.2,21.1,98,81,64,29.26,28.88,12,4,12,0.00
2013-3-1,31.1,27.6,21.9,21.4,15.1,10.6,71,59,50,29.41,29.26,15,3,15,0.00
2013-3-2,30.6,23.2,15.4,13.2,10.1,6.9,70,57,47,29.41,29.32,11,3,11,0.00
2013-3-3,33.3,24.1,15.1,12.7,9.9,7.1,72,55,41,29.35,29.26,13,3,13,0.00
2013-3-4,35.6,23.8,12.2,14.8,10.0,4.6,76,56,41,29.41,29.29,6,1,6,0.00
2013-3-5,34.9,26.8,20.3,21.3,14.9,8.2,80,61,50,29.35,29.09,18,4,18,0.00
2013-3-6,40.6,33.8,26.6,26.1,23.8,21.3,83,67,51,29.47,29.20,15,3,15,0.00
2013-3-7,37.9,32.7,24.8,26.5,20.1,15.4,81,61,42,29.65,29.47,14,3,14,0.00
2013-3-8,24.8,23.5,23.4,15.9,15.0,15.0,70,70,68,29.68,29.65,2,0,2,0.00
2013-3-9,23.4,23.4,23.4,15.0,15.0,15.0,70,70,70,29.68,29.68,0,0,0,0.00
2013-3-10,23.4,23.4,23.4,15.0,15.0,15.0,70,70,70,29.68,29.68,0,0,0,0.00
2013-3-16,36.7,31.6,25.9,22.5,17.9,13.1,79,57,46,30.09,29.12,13,4,13,0.13
2013-3-17,32.7,27.4,23.2,16.4,11.5,7.3,63,51,41,30.27,30.09,13,4,13,0.00
2013-3-18,33.4,27.7,20.8,31.5,21.1,10.4,95,76,57,30.15,29.59,17,4,17,0.00
2013-3-19,31.1,24.4,20.3,28.0,15.7,10.5,88,70,51,29.97,29.65,23,5,23,0.00
2013-3-20,18.1,16.4,15.4,8.9,8.5,8.0,73,71,65,30.00,29.97,10,2,10,0.00
2013-3-21,32.7,24.6,15.3,21.3,15.2,8.9,82,68,54,30.00,29.91,16,4,16,0.00
2013-3-22,38.3,30.9,25.7,19.2,15.9,13.3,64,54,42,30.09,30.00,13,4,13,0.00
2013-3-23,37.8,31.4,25.2,22.0,18.3,15.4,69,59,47,30.15,30.06,7,2,7,0.00
2013-3-24,38.5,31.0,25.5,23.5,19.0,13.7,75,62,46,30.09,29.74,24,4,24,0.00
2013-3-25,39.4,34.1,30.0,22.5,20.6,17.2,69,58,45,30.03,29.71,18,5,18,0.00
2013-3-26,41.2,34.6,29.8,31.4,26.1,20.2,87,71,51,30.21,30.00,13,3,13,0.04
2013-3-27,45.5,36.9,30.9,28.9,23.1,15.8,89,60,39,30.27,30.21,18,5,18,0.04
2013-3-28,32.4,31.4,30.4,20.9,20.1,18.8,67,63,57,30.30,30.27,4,1,4,0.00
2013-4-4,46.9,45.6,44.4,20.4,19.9,19.0,38,36,33,30.00,29.97,6,2,6,0.00
2013-4-5,51.1,42.0,32.0,21.0,18.4,13.5,54,39,27,30.21,30.00,13,3,13,0.00
2013-4-6,58.3,45.3,35.1,36.2,21.0,12.1,53,38,29,30.21,29.68,26,6,26,0.00
2013-4-7,55.0,49.5,40.8,46.1,40.5,32.7,85,72,52,29.79,29.62,23,6,23,0.04
2013-4-12,66.6,39.7,36.9,55.6,34.4,29.1,96,82,42,29.62,28.85,13,3,13,0.04
2013-4-13,39.7,36.2,34.2,36.1,28.4,19.3,98,75,46,29.23,29.00,20,4,20,0.09
2013-4-14,48.4,36.8,30.4,37.4,29.7,24.7,89,76,63,29.32,29.14,15,2,15,0.08
2013-4-15,65.1,56.4,47.3,53.6,49.9,45.7,95,80,55,29.17,29.09,23,3,23,0.49
2013-4-16,50.2,48.6,47.7,31.1,30.1,27.8,51,49,43,29.35,29.32,13,7,13,0.00
2013-4-18,61.5,60.9,60.1,58.9,55.9,54.7,91,84,80,28.76,28.67,19,7,19,0.00
2013-4-19,61.0,39.1,32.9,56.7,31.5,20.0,93,75,53,29.00,28.70,26,6,26,0.25
2013-4-20,40.8,33.3,28.0,23.1,15.3,10.9,66,48,39,29.65,29.00,19,5,19,0.04
2013-4-21,55.0,38.1,25.5,24.0,19.5,13.7,70,50,29,29.79,29.62,19,3,19,0.00
2013-4-23,64.2,51.8,41.0,48.3,43.0,39.4,95,75,44,29.20,29.09,12,3,12,0.46
2013-4-24,47.7,39.2,33.8,39.5,27.5,18.5,95,66,37,29.32,29.12,18,4,18,0.13
2013-4-25,39.2,36.8,35.8,32.6,27.8,21.1,82,71,52,29.32,29.26,11,3,11,0.12
2013-4-26,60.4,43.1,35.8,33.0,31.1,30.5,81,67,35,30.30,29.29,10,3,10,0.12
2013-4-27,73.2,59.2,42.8,41.3,33.8,27.8,70,41,23,30.30,30.06,16,3,16,0.12
2013-4-28,65.1,57.9,51.8,49.8,41.2,31.5,81,55,41,30.06,29.82,13,2,13,0.12
2013-4-29,73.9,61.8,47.8,51.7,47.1,44.1,91,62,36,29.94,29.82,10,2,10,0.12
2013-4-30,78.4,65.9,55.6,57.4,52.9,47.1,94,65,42,29.97,29.85,20,6,20,1.04
2013-5-1,86.5,74.1,60.4,56.9,50.8,45.4,74,48,25,30.15,29.97,19,3,19,0.12
2013-5-2,85.3,70.7,60.1,53.6,51.1,47.4,73,53,30,30.18,30.03,12,2,12,0.00
2013-5-3,81.7,68.5,55.4,51.9,47.1,35.0,82,50,29,30.09,29.94,19,3,19,0.00
2013-5-4,76.1,67.2,58.3,43.8,38.1,32.0,50,35,26,30.06,29.97,15,4,15,0.00
2013-5-5,77.4,64.9,54.9,42.5,36.1,28.0,48,36,22,30.09,29.97,13,2,13,0.00
2013-5-6,75.7,59.8,51.3,41.3,34.9,30.4,53,41,22,30.06,30.00,9,1,9,0.00
2013-5-14,62.4,60.8,59.9,51.6,50.1,48.6,72,68,61,29.71,29.65,6,0,6,0.00
2013-5-15,80.2,69.2,57.0,56.8,45.1,35.5,79,45,25,29.82,29.59,17,3,17,0.00
2013-5-16,82.9,66.8,49.1,47.1,41.0,35.6,76,44,22,30.00,29.82,12,1,12,0.00
2013-5-17,69.3,61.1,52.3,42.1,38.6,34.4,55,44,33,30.12,30.00,12,3,12,0.00
2013-5-18,83.8,68.7,55.8,50.5,44.8,40.7,61,44,29,30.12,29.97,10,2,10,0.00
2013-5-19,88.2,74.3,58.5,58.7,49.7,40.9,67,43,31,30.00,29.79,14,2,14,0.00
2013-5-20,88.7,76.3,68.5,73.1,60.6,50.9,91,60,33,29.85,29.71,26,3,26,0.99
2013-5-21,80.1,72.4,63.1,64.7,60.3,54.7,96,68,45,29.76,29.68,15,2,15,0.33
2013-5-22,64.8,61.7,58.8,59.5,57.8,56.2,91,87,82,29.71,29.65,6,1,6,0.33
2013-5-23,58.8,52.6,43.0,56.6,49.0,34.2,98,88,68,30.21,29.71,17,3,17,0.58
2013-5-24,63.9,49.8,36.3,38.2,34.3,30.7,87,58,36,30.36,30.21,13,2,13,0.00
2013-5-25,66.7,54.5,40.3,39.5,34.3,28.8,85,51,26,30.39,30.24,10,1,10,0.00
2013-5-26,59.2,50.0,46.4,38.9,36.5,32.7,73,61,38,30.30,30.21,7,1,7,0.00
2013-5-27,60.6,54.2,51.1,51.6,41.3,33.0,98,65,40,30.21,29.94,15,3,15,0.12
2013-5-28,75.4,61.9,52.0,68.5,60.0,51.2,98,94,67,29.94,29.76,10,2,10,1.75
2013-5-29,76.8,66.6,61.2,68.0,63.0,60.3,98,90,57,29.94,29.79,10,1,10,0.16
2013-5-30,86.2,76.8,64.9,66.2,62.4,58.6,92,64,42,29.97,29.85,20,3,20,0.16
2013-5-31,80.1,73.6,65.1,67.9,62.1,55.8,95,69,46,29.91,29.76,19,3,19,0.25
2013-6-1,83.3,72.0,63.5,64.8,60.5,54.1,95,70,40,29.76,29.65,15,3,15,0.33
2013-6-2,63.5,56.5,46.6,61.4,48.1,36.8,97,75,50,30.03,29.62,14,2,14,0.16
2013-6-3,68.9,55.9,40.3,43.3,38.0,35.5,92,56,33,30.09,30.00,10,1,10,0.16
2013-6-4,75.2,61.9,47.1,44.1,41.0,37.5,76,49,32,30.18,30.09,10,1,10,0.16
2013-6-5,74.8,64.2,58.3,42.6,38.8,32.8,54,40,26,30.15,30.03,12,3,12,0.16
2013-6-8,63.9,60.7,58.5,49.1,46.9,43.3,71,61,47,30.03,29.97,0,0,0,0.00
2013-6-9,81.7,69.7,57.9,58.8,53.1,49.5,80,57,39,30.06,29.85,17,2,17,0.00
2013-6-10,75.7,65.7,61.7,64.5,59.9,50.8,97,83,54,29.88,29.74,9,2,9,0.16
2013-6-11,83.5,69.1,58.6,62.4,59.0,57.1,96,73,46,29.91,29.79,10,1,10,0.16
2013-6-12,76.1,68.5,62.8,66.2,63.1,59.8,97,84,67,29.91,29.62,14,1,14,0.50
2013-6-13,79.9,68.3,59.4,64.5,57.0,50.8,98,71,39,29.94,29.62,13,2,13,0.54
2013-6-14,80.1,67.3,54.7,53.2,48.8,43.3,86,56,30,30.09,29.94,10,2,10,0.54
2013-6-15,75.6,65.7,55.8,60.6,55.5,49.4,86,70,52,30.03,29.82,12,1,12,0.54
2013-6-16,81.3,70.1,63.0,66.1,59.5,51.3,98,73,40,29.85,29.76,13,2,13,1.24
2013-6-17,88.3,72.4,58.5,61.4,53.8,48.0,94,58,27,29.91,29.79,15,1,15,0.54
2013-6-18,74.5,65.1,56.3,58.1,46.6,36.6,85,55,31,30.06,29.88,13,3,13,0.54
2013-6-19,77.0,64.5,48.9,43.3,39.5,36.8,69,42,25,30.15,30.06,10,1,10,0.54
2013-6-20,60.3,58.1,56.7,45.4,44.2,42.9,66,60,53,30.09,30.09,2,0,2,0.00
2013-6-21,86.4,80.5,69.6,60.4,57.7,54.4,66,47,35,30.12,29.94,21,3,21,0.00
2013-6-22,89.2,77.3,69.4,67.3,62.4,59.0,79,62,39,30.06,29.91,10,1,10,0.00
2013-6-23,93.4,80.9,69.4,66.9,62.1,56.8,81,56,31,30.00,29.91,12,2,12,0.00
2013-6-24,88.9,78.8,71.2,67.8,62.2,57.4,76,59,36,30.00,29.82,17,2,17,0.00
2013-6-25,79.7,71.2,66.4,71.6,65.3,58.6,97,82,62,29.94,29.79,17,1,17,0.75
2013-6-26,87.6,75.4,66.0,68.4,65.5,62.7,97,73,47,29.82,29.71,11,1,11,0.00
2013-6-27,88.5,76.8,67.5,71.6,65.2,57.5,94,70,39,29.74,29.62,13,1,13,0.00
2013-6-28,83.8,71.0,65.7,65.5,61.6,55.1,91,74,41,29.62,29.50,15,1,15,0.25
2013-6-29,72.9,66.8,61.0,63.2,59.8,55.5,96,79,63,29.74,29.53,10,2,10,0.04
2013-6-30,81.9,71.4,62.1,59.0,52.9,38.9,84,55,32,29.97,29.74,13,2,13,0.00
2013-7-1,78.6,67.2,57.4,48.8,42.9,37.3,57,42,30,30.06,29.94,20,3,20,0.00
2013-7-2,67.5,62.8,56.5,60.2,50.9,35.2,91,68,36,30.06,30.00,10,2,10,0.17
2013-7-3,82.2,67.6,60.6,64.5,57.0,46.2,88,70,43,30.06,29.97,12,2,12,0.00
2013-7-4,82.0,71.2,62.1,64.7,58.0,50.1,94,67,36,30.09,30.00,8,1,8,0.00
2013-7-5,87.6,75.0,63.9,63.8,58.2,51.1,92,60,32,30.09,29.97,9,1,9,0.00
2013-7-6,88.9,76.5,67.1,68.2,61.9,57.8,89,63,38,30.06,29.94,10,1,10,0.00
2013-7-7,72.5,72.1,70.9,65.8,64.5,63.8,84,77,74,29.97,29.94,5,0,5,0.00
2013-7-15,79.0,76.5,75.4,72.9,72.3,70.9,92,87,77,30.24,30.18,4,0,4,0.00
2013-7-16,93.4,82.3,72.1,77.3,69.2,62.5,98,69,42,30.27,30.18,11,1,11,0.04
2013-7-17,97.2,84.4,75.0,75.7,68.3,63.9,86,61,37,30.27,30.12,11,1,11,0.04
2013-7-18,98.8,85.9,75.0,75.0,67.1,61.6,85,57,32,30.12,29.88,12,1,12,0.04
2013-7-19,97.9,84.5,78.3,73.1,67.7,59.3,78,59,31,29.91,29.68,10,2,10,0.21
2013-7-20,88.5,80.8,68.5,71.1,54.3,46.0,89,42,28,29.94,29.71,12,2,12,0.00
2013-7-21,84.2,71.2,60.4,65.8,52.2,43.5,91,53,36,30.03,29.88,14,2,14,0.83
2013-7-22,86.0,73.8,65.1,68.1,63.2,58.5,97,73,41,29.94,29.71,11,2,11,0.12
2013-7-23,81.3,72.2,58.8,69.3,58.8,42.1,92,65,36,29.94,29.65,18,3,18,0.00
2013-7-24,74.7,63.4,50.7,49.5,44.0,40.7,78,52,32,30.06,29.91,9,2,9,0.00
2013-7-25,80.8,67.1,55.9,55.4,48.8,42.7,87,56,30,30.09,30.00,9,1,9,0.00
2013-7-26,76.8,67.5,62.4,62.5,55.7,46.7,94,68,45,30.03,29.85,13,1,13,0.21
2013-7-27,72.7,63.3,56.3,64.0,54.9,43.6,98,76,51,29.85,29.79,13,1,13,0.04
2013-7-28,59.4,59.0,58.8,50.7,50.5,50.4,74,73,73,29.94,29.91,6,1,6,0.04
2013-7-29,70.0,62.0,56.8,55.4,52.9,49.2,93,74,50,30.15,29.91,8,1,8,0.04
2013-7-30,70.9,65.0,55.6,52.8,51.9,51.0,85,64,51,30.15,30.06,6,0,6,0.00
2013-7-31,69.3,65.8,62.8,65.9,61.0,52.4,94,85,55,30.09,29.88,7,1,7,0.12
2013-8-3,79.0,71.4,60.8,49.5,46.1,44.0,62,41,32,30.03,29.97,11,2,11,0.12
2013-8-4,75.9,65.3,56.1,52.2,47.0,39.3,82,55,33,30.18,30.03,11,1,11,0.00
2013-8-5,70.9,62.4,51.6,56.6,49.5,42.6,86,64,43,30.09,29.88,8,2,8,0.00
2013-8-6,75.6,68.8,64.0,65.8,61.8,57.0,88,79,67,29.91,29.82,10,2,10,0.00
2013-8-7,77.5,71.1,65.5,64.2,60.1,58.2,78,69,62,29.88,29.79,8,1,8,0.00
2013-8-8,78.3,67.8,58.5,58.6,50.5,43.2,88,58,31,30.00,29.88,10,2,10,0.00
2013-8-9,82.0,69.9,56.8,57.0,53.2,48.1,91,59,32,29.97,29.91,11,1,11,0.00
2013-8-10,79.7,69.6,60.6,56.7,50.7,44.9,82,54,31,30.09,29.97,9,1,9,0.00
2013-8-11,79.5,68.5,59.9,55.5,51.5,46.7,80,57,34,30.09,30.00,10,1,10,0.00
2013-8-12,73.2,68.3,65.1,68.3,64.1,54.0,96,87,64,30.00,29.82,7,0,7,0.41
2013-8-13,68.2,61.4,53.8,57.5,45.5,37.7,79,58,35,30.09,29.88,16,3,16,0.00
2013-8-14,72.1,59.1,47.7,48.8,43.2,40.2,82,58,34,30.18,30.09,10,1,10,0.00
2013-8-15,76.1,62.1,49.3,54.7,48.0,44.4,91,64,37,30.15,30.03,12,1,12,0.00
2013-8-16,77.4,69.9,61.7,53.0,49.5,43.7,73,50,31,30.15,30.09,5,0,5,0.00
2013-8-17,82.0,68.4,55.6,62.7,50.7,43.3,93,59,27,30.24,30.12,13,1,13,0.00
2013-8-18,81.5,68.9,55.8,60.4,51.8,46.5,91,59,30,30.18,30.06,8,1,8,0.00
2013-8-19,82.9,69.5,56.1,60.0,53.7,49.2,92,61,33,30.09,30.00,11,1,11,0.00
2013-8-20,86.5,73.1,61.7,65.2,58.4,54.4,87,63,36,30.09,30.00,17,1,17,0.00
2013-8-21,88.3,76.7,66.4,66.1,60.3,54.5,83,60,33,30.06,29.91,13,2,13,0.00
2013-8-22,77.7,69.6,64.4,67.5,64.9,61.1,96,85,57,30.06,29.91,19,1,19,0.17
2013-8-23,80.6,68.2,54.7,64.6,50.0,42.6,94,58,30,30.15,30.06,11,1,11,0.00
2013-8-24,83.1,70.0,56.8,57.6,51.4,46.7,89,56,29,30.27,30.15,10,1,10,0.00
2013-8-25,88.0,74.8,62.4,61.4,56.5,52.5,75,55,36,30.21,30.09,13,2,13,0.00
2013-8-26,82.4,76.2,70.2,67.0,63.1,59.4,74,64,55,30.09,29.94,12,1,12,0.00
2013-8-27,89.2,79.3,71.2,74.6,69.3,63.0,96,73,46,29.97,29.76,14,2,14,0.66
2013-8-28,81.1,75.1,70.5,72.9,69.8,64.5,98,85,58,30.00,29.76,11,1,11,0.80
2013-8-29,86.2,75.5,66.9,68.7,64.2,56.6,97,72,38,30.06,29.94,7,1,7,0.80
2013-8-30,88.7,77.1,68.2,68.8,65.8,61.2,92,71,42,29.97,29.71,13,2,13,0.80
2013-8-31,80.2,71.5,64.6,65.3,61.3,56.9,92,72,48,29.82,29.76,9,1,9,0.80
2013-9-1,82.9,72.3,64.4,69.0,64.4,60.9,94,77,55,29.82,29.68,10,1,10,0.80
2013-9-2,71.6,66.0,60.8,66.6,54.9,46.7,90,69,49,29.94,29.71,12,2,12,0.80
2013-9-3,73.9,64.3,55.9,51.0,48.5,46.3,74,58,39,30.03,29.91,12,1,12,0.80
2013-9-4,79.5,67.1,56.3,60.9,54.7,50.3,92,68,38,30.06,29.97,14,2,14,0.80
2013-9-5,70.9,62.3,53.2,57.4,44.4,36.1,81,55,30,30.24,30.06,10,2,10,0.80
2013-9-6,77.9,62.4,52.2,50.1,45.4,43.1,77,57,31,30.21,30.06,11,2,11,0.00
2013-9-12,75.4,65.3,56.8,57.2,48.5,43.5,68,55,37,30.03,29.88,24,3,24,0.00
2013-9-13,62.1,55.3,48.7,44.0,38.3,32.1,74,54,35,30.12,30.00,14,3,14,0.00
2013-9-14,68.5,57.0,43.5,45.6,41.2,36.8,80,58,35,30.15,30.03,10,1,10,0.00
2013-9-15,60.1,56.6,53.6,55.5,48.9,38.6,94,76,52,30.12,30.03,6,0,6,0.09
2013-9-16,59.2,54.2,48.7,54.9,45.0,39.4,95,72,50,30.33,30.12,11,2,11,0.00
2013-9-17,66.6,54.1,42.3,50.1,41.1,37.8,86,64,36,30.36,30.15,10,2,10,0.00
2013-9-18,76.3,64.4,53.4,54.6,48.4,44.8,76,58,37,30.15,29.94,13,2,13,0.00
2013-9-19,72.7,67.7,62.8,67.5,60.3,48.8,96,78,54,29.97,29.79,13,2,13,0.29
2013-9-20,70.7,69.0,63.1,68.7,64.0,55.8,98,84,76,29.82,29.71,12,2,12,0.00
2013-9-21,65.5,59.5,54.3,56.3,47.8,40.9,88,66,44,29.88,29.68,14,2,14,0.00
2013-9-22,56.8,52.3,45.5,44.2,39.9,36.2,85,63,48,30.06,29.88,9,1,9,0.00
2013-9-23,61.9,49.3,41.5,41.2,38.2,36.3,85,68,42,30.15,30.06,10,2,10,0.00
2013-9-24,65.1,57.7,52.5,45.5,43.7,42.0,74,61,44,29.97,29.94,7,1,7,0.00
2013-9-25,68.0,57.4,47.3,50.8,45.0,41.7,90,66,39,30.00,29.91,10,1,10,0.00
2013-9-26,70.3,58.3,47.3,52.4,45.6,40.5,91,66,35,30.09,29.97,7,1,7,0.00
2013-9-27,75.7,62.3,49.3,54.3,47.6,43.3,91,63,33,30.18,30.09,11,1,11,0.00
2013-9-28,77.5,65.6,53.8,53.7,48.9,43.5,91,59,32,30.12,29.88,17,3,17,0.00
2013-9-29,70.3,62.2,53.1,58.3,49.7,43.4,92,66,44,30.00,29.88,10,2,10,0.25
2013-9-30,68.7,58.6,51.1,53.7,47.8,43.1,86,70,40,30.00,29.88,8,1,8,0.00
2013-10-1,69.6,62.4,54.1,61.4,56.8,48.8,95,82,71,29.94,29.88,12,2,12,0.00
2013-10-2,72.7,62.6,53.8,60.1,47.8,35.0,98,65,27,30.09,29.91,6,1,6,0.00
2013-10-3,78.6,65.4,53.8,64.1,54.8,41.8,90,69,56,30.03,29.85,14,1,14,0.00
2013-10-4,76.5,69.4,63.9,65.0,63.1,61.1,95,82,60,29.97,29.88,10,1,10,0.00
2013-10-5,74.7,68.1,63.5,68.2,65.3,61.8,98,91,76,29.97,29.76,14,2,14,0.79
2013-10-6,69.3,60.5,52.0,67.2,56.9,45.9,94,88,73,29.76,29.65,8,2,8,0.17
2013-10-7,59.2,52.4,47.7,52.7,45.3,38.7,96,78,49,30.06,29.65,14,2,14,0.16
2013-10-8,68.9,56.4,44.6,46.4,43.3,40.0,90,65,39,30.18,30.06,12,2,12,0.00
2013-10-9,68.4,57.4,46.9,47.6,42.7,37.8,87,61,35,30.24,30.12,10,1,10,0.00
2013-10-10,69.6,56.5,45.1,50.2,43.8,39.7,90,66,34,30.18,30.06,8,1,8,0.00
2013-10-11,68.0,56.2,45.1,48.5,43.1,37.7,85,65,33,30.12,30.00,8,1,8,0.00
2013-10-12,55.4,52.0,49.6,46.9,44.6,41.6,80,76,65,30.03,30.00,6,1,6,0.00
2013-10-15,64.4,61.2,58.8,59.8,55.9,51.4,97,84,64,31.60,29.09,13,3,13,0.25
2013-10-16,60.8,52.7,50.2,60.0,48.7,44.0,97,86,74,29.85,29.74,12,1,12,0.21
2013-10-17,52.0,48.9,41.7,51.4,47.7,39.8,98,96,90,29.85,29.71,10,1,10,0.58
2013-10-18,59.4,48.0,41.2,49.0,41.7,38.8,98,80,56,29.85,29.79,13,2,13,0.00
2013-10-19,51.3,46.2,40.8,39.8,37.1,28.0,90,71,42,29.85,29.71,13,1,13,0.20
2013-10-20,55.4,47.7,37.8,47.3,38.8,32.6,96,74,43,29.85,29.71,19,1,19,0.05
2013-10-21,52.5,47.5,40.1,50.0,38.0,20.5,95,71,46,29.85,29.74,19,3,19,0.08
2013-10-22,48.7,41.9,36.3,29.4,25.5,20.3,72,52,43,29.88,29.82,15,2,15,0.00
2013-10-23,45.3,38.6,32.7,33.7,27.6,20.6,85,66,39,29.91,29.82,12,1,12,0.00
2013-10-24,44.4,38.4,35.2,32.8,28.5,23.3,85,68,49,30.15,29.91,10,1,10,0.00
2013-10-25,46.6,40.0,33.1,34.0,28.1,22.7,85,64,41,30.30,29.97,14,2,14,0.00
2013-10-26,52.2,46.3,40.8,37.7,30.4,25.4,77,54,40,30.00,29.74,27,3,27,0.08
2013-10-27,52.5,42.4,37.2,30.6,27.9,23.8,72,57,39,30.03,29.94,13,1,13,0.00
2013-10-28,46.8,42.3,38.8,30.1,27.7,24.9,60,56,50,30.36,30.27,10,3,10,0.00
2013-10-29,48.7,41.9,38.3,31.0,26.9,22.3,70,55,49,30.39,30.18,9,2,9,0.00
2013-10-30,62.6,49.5,36.7,54.3,39.6,29.4,93,70,45,30.18,29.85,10,2,10,0.29
2013-10-31,61.0,58.9,55.2,60.4,58.3,54.3,98,98,93,29.85,29.12,16,3,16,1.17
2013-11-1,55.0,47.1,45.1,54.5,43.7,38.2,98,88,73,29.71,29.20,20,3,20,0.54
2013-11-2,46.4,46.4,46.4,45.6,45.6,45.6,97,97,97,29.71,29.71,3,2,3,0.00
2013-11-7,43.9,39.7,36.3,27.1,23.8,20.4,69,53,44,30.12,30.06,13,4,13,0.00
2013-11-8,45.5,39.3,32.9,28.2,22.2,18.5,71,50,39,30.24,30.06,11,2,11,0.00
2013-11-9,51.8,46.9,40.3,37.3,31.1,24.8,62,54,47,30.06,29.76,20,5,20,0.00
2013-11-10,47.8,41.7,34.0,28.2,24.3,21.8,73,50,40,30.24,29.91,17,5,17,0.00
2013-11-11,28.9,27.8,26.8,17.6,16.9,16.4,65,63,61,30.36,30.27,6,2,6,0.00
2013-11-12,34.3,27.6,23.0,21.9,14.5,9.7,80,59,40,30.53,30.36,15,2,15,0.00
2013-11-13,40.8,30.9,21.9,20.8,16.2,12.3,74,56,39,30.47,30.09,18,3,18,0.00
2013-11-14,46.6,38.8,31.1,27.0,21.4,17.8,64,50,38,30.12,29.91,10,3,10,0.00
2013-11-15,49.1,42.5,38.3,29.5,24.7,21.7,59,49,43,30.00,29.94,11,2,11,0.00
2013-11-16,40.6,37.7,35.8,32.2,27.0,24.8,72,65,56,30.03,29.97,8,2,8,0.00
2013-11-17,63.5,50.6,41.5,58.1,47.2,32.9,96,88,68,29.56,29.17,43,7,43,1.25
2013-11-18,44.4,38.1,34.3,34.4,23.1,17.4,68,55,48,30.15,29.56,17,6,17,0.00
2013-11-19,40.3,34.6,29.5,19.5,17.8,16.2,62,50,40,30.33,30.15,13,2,13,0.00
2013-11-20,44.1,36.2,28.9,25.3,19.5,16.7,64,51,38,30.36,30.15,15,3,15,0.00
2013-11-21,51.1,42.4,37.6,37.3,33.2,25.7,81,70,56,30.21,30.12,10,2,10,0.00
2013-11-22,38.7,33.1,27.9,27.7,20.7,18.7,71,60,51,30.39,30.27,15,3,15,0.00
2013-11-23,29.5,23.6,16.7,20.7,10.4,2.0,75,57,44,30.53,30.27,21,4,21,0.00
2013-11-24,24.6,20.7,16.2,12.2,6.1,2.5,64,53,44,30.56,30.30,13,3,13,0.00
2013-11-25,33.3,26.2,20.7,28.1,14.0,2.4,84,61,44,30.33,30.00,17,4,17,0.00
2013-11-26,33.3,30.5,23.5,26.7,22.0,11.3,79,71,54,30.03,29.94,13,3,13,0.00
2013-11-27,30.0,23.4,19.4,13.7,9.1,4.6,71,54,41,30.18,30.00,18,4,18,0.00
2013-11-28,28.0,24.6,21.9,18.5,14.0,8.6,78,64,48,30.39,30.18,11,2,11,0.00
2013-11-29,32.0,27.9,25.7,18.5,16.0,14.4,64,61,57,30.56,29.76,8,2,8,0.00
2013-11-30,43.7,35.1,26.6,25.9,20.7,14.9,65,56,46,30.44,30.03,13,2,13,0.04
2013-12-1,41.9,36.3,33.6,31.2,27.9,23.5,84,72,50,30.09,30.03,8,1,8,0.00
2013-12-2,40.6,35.6,30.9,26.9,19.9,17.6,67,53,45,29.91,29.17,7,2,7,0.00
2013-12-3,34.5,32.8,30.7,34.0,27.6,17.9,98,82,54,29.91,29.79,11,3,11,0.79
2013-12-4,55.8,43.3,34.5,55.2,42.5,34.0,98,97,83,29.85,29.56,15,3,15,0.62
2013-12-5,53.8,36.0,26.8,49.5,23.6,11.5,87,61,49,30.15,29.56,21,6,21,0.62
2013-12-6,26.6,25.0,23.2,12.2,10.4,9.0,54,53,52,30.21,30.15,13,4,13,0.00
2013-12-7,21.2,17.9,13.8,6.6,3.9,2.2,63,54,47,30.59,30.53,14,3,14,0.00
2013-12-8,22.5,18.4,13.6,17.8,9.0,2.7,85,67,48,30.56,29.97,11,2,11,0.00
2013-12-9,23.2,22.0,21.2,18.2,17.0,16.2,81,81,80,29.97,29.88,5,0,5,0.00
2013-12-10,21.2,19.4,12.6,14.8,9.5,3.4,76,65,54,30.18,29.91,17,4,17,0.00
2013-12-11,20.7,16.2,10.4,12.4,4.8,-2.9,76,60,51,30.41,30.15,15,4,15,0.00
2013-12-12,23.9,19.4,14.5,17.1,12.1,4.6,78,73,64,30.30,30.15,12,3,12,0.00
2013-12-13,30.4,25.0,20.1,19.0,14.8,9.9,76,65,52,30.24,30.12,15,2,15,0.00
2013-12-14,21.9,19.3,15.6,14.2,11.9,7.3,77,72,64,30.24,29.88,18,3,18,0.00
2013-12-15,22.1,18.8,14.2,17.3,10.4,2.7,82,69,57,30.06,29.82,17,4,17,0.00
2013-12-16,21.7,14.8,6.3,14.7,4.1,-4.3,80,62,53,30.12,30.00,10,2,10,0.00
2013-12-17,30.6,25.2,16.7,26.5,19.8,-9.2,86,80,19,30.00,29.85,14,3,14,0.00
2013-12-18,30.2,27.0,24.4,23.1,15.5,8.5,85,62,49,30.12,29.85,15,3,15,0.00
2013-12-19,39.4,33.0,25.7,32.9,25.6,11.3,89,74,53,29.97,29.82,10,2,10,0.00
2013-12-20,32.4,31.1,29.7,30.5,29.0,27.3,95,92,88,29.88,29.79,10,3,10,0.00
2013-12-30,20.5,19.3,17.1,7.1,5.1,1.2,57,53,48,30.24,29.50,7,2,7,0.00
2013-12-31,18.1,16.1,13.3,10.2,7.7,5.0,75,69,62,30.33,30.21,13,3,13,0.00
2014-1-1,14.5,11.9,10.4,5.2,2.4,-3.1,69,65,48,30.39,30.24,13,3,13,0.00
2014-1-2,14.9,10.4,1.8,3.0,-3.2,-14.8,62,54,45,30.33,30.18,17,4,17,0.00